User: anonymous   Login
Location: Asheville, NC
(35.6000°N, 82.5500°W)
Time: 00:02:00
(UTC-04:00)
Language:

AAUSAT CUBESAT 2 - Orbit

View from above orbital plane
View from above orbital plane
View from above satellite
View from above satellite

Ground track
Ground track

The orbit data is extracted from the following two-line orbital elements,

1 32788U 08021F   18141.57185251 +.00000471 +00000-0 +48766-4 0  9995
2 32788 097.5235 169.1843 0013592 079.6944 280.5809 14.94332515546107
Epoch (UTC): 21 May 2018 13:43:28
Eccentricity: 0.0013592
inclination: 97.5235°
perigee height: 575 km
apogee height: 594 km
right ascension of ascending node: 169.1843°
argument of perigee: 79.6944°
revolutions per day: 14.94332515
mean anomaly at epoch: 280.5809°
orbit number at epoch: 54610

The dashed part of the orbit path shows where the satellite is in the earth's shadow,  

DLR